Time,TemperatureF,DewpointF,PressureIn,WindDirection,WindDirectionDegrees,WindSpeedMPH,WindSpeedGustMPH,Humidity,HourlyPrecipIn,Conditions,Clouds,dailyrainin,SoftwareType,DateUTC
2013-05-13 00:01:00,59.8,47.6,30.09,NW,326,0.0,0.0,64,0.00,,,0.00,VWS V14.01,2013-05-13 07:01:00,
2013-05-13 00:06:00,59.5,48.2,30.09,NW,326,0.0,0.0,66,0.00,,,0.00,VWS V14.01,2013-05-13 07:06:00,
2013-05-13 00:11:00,59.2,48.3,30.08,NW,326,0.0,0.0,67,0.00,,,0.00,VWS V14.01,2013-05-13 07:11:00,
2013-05-13 00:16:00,59.1,48.6,30.09,NW,326,0.0,0.0,68,0.00,,,0.00,VWS V14.01,2013-05-13 07:16:00,
2013-05-13 00:21:00,58.9,48.4,30.09,NW,326,0.0,0.0,68,0.00,,,0.00,VWS V14.01,2013-05-13 07:21:00,
2013-05-13 00:26:00,58.6,48.5,30.09,NW,326,0.0,0.0,69,0.00,,,0.00,VWS V14.01,2013-05-13 07:26:00,
2013-05-13 00:31:00,58.3,48.6,30.08,NW,326,0.0,0.0,70,0.00,,,0.00,VWS V14.01,2013-05-13 07:31:00,
2013-05-13 00:36:00,58.0,48.7,30.09,NW,326,0.0,0.0,71,0.00,,,0.00,VWS V14.01,2013-05-13 07:36:00,
2013-05-13 00:41:00,57.6,48.3,30.09,NW,326,0.0,0.0,71,0.00,,,0.00,VWS V14.01,2013-05-13 07:41:00,
2013-05-13 00:45:00,57.2,48.6,30.09,NW,326,0.0,0.0,73,0.00,,,0.00,VWS V14.01,2013-05-13 07:45:00,
2013-05-13 00:50:00,57.0,48.8,30.09,NW,326,0.0,0.0,74,0.00,,,0.00,VWS V14.01,2013-05-13 07:50:00,
2013-05-13 00:55:00,56.8,48.6,30.08,NNW,328,0.0,0.0,74,0.00,,,0.00,VWS V14.01,2013-05-13 07:55:00,
2013-05-13 01:00:00,56.8,49.0,30.08,NNW,329,0.0,0.0,75,0.00,,,0.00,VWS V14.01,2013-05-13 08:00:00,
2013-05-13 01:05:00,56.6,48.4,30.08,NNW,328,0.0,0.0,74,0.00,,,0.00,VWS V14.01,2013-05-13 08:05:00,
2013-05-13 01:10:00,56.4,48.6,30.08,NNW,328,0.0,0.0,75,0.00,,,0.00,VWS V14.01,2013-05-13 08:10:00,
2013-05-13 01:15:00,56.3,48.8,30.08,NNW,329,0.0,0.0,76,0.00,,,0.00,VWS V14.01,2013-05-13 08:15:00,
2013-05-13 01:20:00,55.9,48.5,30.08,NNW,328,0.0,0.0,76,0.00,,,0.00,VWS V14.01,2013-05-13 08:20:00,
2013-05-13 01:25:00,55.6,48.5,30.08,NNW,328,0.0,0.0,77,0.00,,,0.00,VWS V14.01,2013-05-13 08:25:00,
2013-05-13 01:30:00,55.4,48.7,30.08,NNW,328,0.0,0.0,78,0.00,,,0.00,VWS V14.01,2013-05-13 08:30:00,
2013-05-13 01:35:00,55.2,48.5,30.08,NNW,329,0.0,0.0,78,0.00,,,0.00,VWS V14.01,2013-05-13 08:35:00,
2013-05-13 01:40:00,55.0,48.6,30.08,NE,39,0.0,0.0,79,0.00,,,0.00,VWS V14.01,2013-05-13 08:40:00,
2013-05-13 01:45:00,55.1,48.4,30.08,NE,39,0.0,0.0,78,0.00,,,0.00,VWS V14.01,2013-05-13 08:45:00,
2013-05-13 01:50:00,55.0,48.3,30.08,NE,39,0.0,0.0,78,0.00,,,0.00,VWS V14.01,2013-05-13 08:50:00,
2013-05-13 01:55:00,54.9,48.2,30.08,NE,39,0.0,0.0,78,0.00,,,0.00,VWS V14.01,2013-05-13 08:55:00,
2013-05-13 02:00:00,54.9,48.2,30.08,NE,37,0.0,0.0,78,0.00,,,0.00,VWS V14.01,2013-05-13 09:00:00,
2013-05-13 02:05:00,54.7,48.0,30.08,NE,39,0.0,0.0,78,0.00,,,0.00,VWS V14.01,2013-05-13 09:05:00,
2013-05-13 02:10:00,54.7,48.0,30.08,NE,39,0.0,0.0,78,0.00,,,0.00,VWS V14.01,2013-05-13 09:10:00,
2013-05-13 02:15:00,54.5,47.8,30.08,NE,39,0.0,0.0,78,0.00,,,0.00,VWS V14.01,2013-05-13 09:15:00,
2013-05-13 02:20:00,54.4,47.7,30.08,NE,39,0.0,0.0,78,0.00,,,0.00,VWS V14.01,2013-05-13 09:20:00,
2013-05-13 02:25:00,54.2,47.5,30.07,NE,39,0.0,0.0,78,0.00,,,0.00,VWS V14.01,2013-05-13 09:25:00,
2013-05-13 02:30:00,53.9,47.2,30.07,NE,39,0.0,0.0,78,0.00,,,0.00,VWS V14.01,2013-05-13 09:30:00,
2013-05-13 02:35:00,53.6,46.9,30.07,NE,39,0.0,0.0,78,0.00,,,0.00,VWS V14.01,2013-05-13 09:35:00,
2013-05-13 02:40:00,53.4,46.7,30.07,NE,39,0.0,0.0,78,0.00,,,0.00,VWS V14.01,2013-05-13 09:40:00,
2013-05-13 02:45:00,53.3,46.3,30.07,NE,39,0.0,0.0,77,0.00,,,0.00,VWS V14.01,2013-05-13 09:45:00,
2013-05-13 02:50:00,53.4,46.0,30.07,NE,39,0.0,0.0,76,0.00,,,0.00,VWS V14.01,2013-05-13 09:50:00,
2013-05-13 02:55:00,53.4,46.0,30.08,NNE,23,0.0,0.0,76,0.00,,,0.00,VWS V14.01,2013-05-13 09:55:00,
2013-05-13 03:00:00,53.6,45.9,30.08,NNE,22,0.0,0.0,75,0.00,,,0.00,VWS V14.01,2013-05-13 10:00:00,
2013-05-13 03:05:00,53.6,45.9,30.08,NNE,23,0.0,0.0,75,0.00,,,0.00,VWS V14.01,2013-05-13 10:05:00,
2013-05-13 03:10:00,53.5,45.4,30.08,NNE,20,0.0,0.0,74,0.00,,,0.00,VWS V14.01,2013-05-13 10:10:00,
2013-05-13 03:15:00,53.5,45.4,30.08,NNE,22,0.0,0.0,74,0.00,,,0.00,VWS V14.01,2013-05-13 10:15:00,
2013-05-13 03:20:00,53.4,45.7,30.08,NNE,22,0.0,0.0,75,0.00,,,0.00,VWS V14.01,2013-05-13 10:20:00,
2013-05-13 03:25:00,53.3,45.6,30.08,NNE,23,0.0,0.0,75,0.00,,,0.00,VWS V14.01,2013-05-13 10:25:00,
2013-05-13 03:30:00,53.2,45.8,30.08,NNE,23,0.0,0.0,76,0.00,,,0.00,VWS V14.01,2013-05-13 10:30:00,
2013-05-13 03:35:00,52.9,45.9,30.08,NNE,23,0.0,0.0,77,0.00,,,0.00,VWS V14.01,2013-05-13 10:35:00,
2013-05-13 03:40:00,52.6,46.3,30.08,NNE,23,0.0,0.0,79,0.00,,,0.00,VWS V14.01,2013-05-13 10:40:00,
2013-05-13 03:45:00,52.5,46.5,30.08,NNE,23,0.0,0.0,80,0.00,,,0.00,VWS V14.01,2013-05-13 10:45:00,
2013-05-13 03:50:00,52.6,46.9,30.08,NNE,23,0.0,0.0,81,0.00,,,0.00,VWS V14.01,2013-05-13 10:50:00,
2013-05-13 03:55:00,52.5,46.8,30.08,NNE,23,0.0,0.0,81,0.00,,,0.00,VWS V14.01,2013-05-13 10:55:00,
2013-05-13 04:00:00,52.2,46.5,30.08,NNE,23,0.0,0.0,81,0.00,,,0.00,VWS V14.01,2013-05-13 11:00:00,
2013-05-13 04:05:00,52.2,46.9,30.08,WNW,283,0.0,0.0,82,0.00,,,0.00,VWS V14.01,2013-05-13 11:05:00,
2013-05-13 04:10:00,52.1,46.8,30.08,WNW,282,0.0,0.0,82,0.00,,,0.00,VWS V14.01,2013-05-13 11:10:00,
2013-05-13 04:15:00,52.1,47.1,30.08,WNW,283,0.0,0.0,83,0.00,,,0.00,VWS V14.01,2013-05-13 11:15:00,
2013-05-13 04:20:00,52.0,47.0,30.08,WNW,282,0.0,0.0,83,0.00,,,0.00,VWS V14.01,2013-05-13 11:20:00,
2013-05-13 04:25:00,52.0,47.0,30.08,WNW,284,0.0,0.0,83,0.00,,,0.00,VWS V14.01,2013-05-13 11:25:00,
2013-05-13 04:30:00,51.9,46.9,30.08,WNW,294,0.0,0.0,83,0.00,,,0.00,VWS V14.01,2013-05-13 11:30:00,
2013-05-13 04:35:00,51.7,46.7,30.08,WNW,294,0.0,0.0,83,0.00,,,0.00,VWS V14.01,2013-05-13 11:35:00,
2013-05-13 04:40:00,51.5,46.5,30.08,WNW,294,0.0,0.0,83,0.00,,,0.00,VWS V14.01,2013-05-13 11:40:00,
2013-05-13 04:45:00,51.4,46.7,30.09,WNW,294,0.0,0.0,84,0.00,,,0.00,VWS V14.01,2013-05-13 11:45:00,
2013-05-13 04:50:00,51.2,46.5,30.09,WNW,294,0.0,0.0,84,0.00,,,0.00,VWS V14.01,2013-05-13 11:50:00,
2013-05-13 04:55:00,50.9,46.2,30.09,WNW,294,0.0,0.0,84,0.00,,,0.00,VWS V14.01,2013-05-13 11:55:00,
2013-05-13 05:00:00,50.6,46.3,30.09,WNW,294,0.0,0.0,85,0.00,,,0.00,VWS V14.01,2013-05-13 12:00:00,
2013-05-13 05:05:00,50.4,46.1,30.09,WNW,294,0.0,0.0,85,0.00,,,0.00,VWS V14.01,2013-05-13 12:05:00,
2013-05-13 05:10:00,50.1,46.1,30.09,WNW,294,0.0,0.0,86,0.00,,,0.00,VWS V14.01,2013-05-13 12:10:00,
2013-05-13 05:15:00,49.9,45.9,30.09,WNW,293,0.0,0.0,86,0.00,,,0.00,VWS V14.01,2013-05-13 12:15:00,
2013-05-13 05:20:00,49.7,46.0,30.09,WNW,294,0.0,0.0,87,0.00,,,0.00,VWS V14.01,2013-05-13 12:20:00,
2013-05-13 05:25:00,49.5,45.8,30.09,WNW,294,0.0,0.0,87,0.00,,,0.00,VWS V14.01,2013-05-13 12:25:00,
2013-05-13 05:30:00,49.3,45.6,30.09,WNW,294,0.0,0.0,87,0.00,,,0.00,VWS V14.01,2013-05-13 12:30:00,
2013-05-13 05:35:00,49.1,45.7,30.09,WNW,294,0.0,0.0,88,0.00,,,0.00,VWS V14.01,2013-05-13 12:35:00,
2013-05-13 05:40:00,49.0,45.6,30.10,WNW,294,0.0,0.0,88,0.00,,,0.00,VWS V14.01,2013-05-13 12:40:00,
2013-05-13 05:45:00,48.9,45.8,30.10,WNW,294,0.0,0.0,89,0.00,,,0.00,VWS V14.01,2013-05-13 12:45:00,
2013-05-13 05:50:00,48.8,45.4,30.10,WNW,294,0.0,0.0,88,0.00,,,0.00,VWS V14.01,2013-05-13 12:50:00,
2013-05-13 05:55:00,48.7,45.3,30.10,WNW,294,0.0,0.0,88,0.00,,,0.00,VWS V14.01,2013-05-13 12:55:00,
2013-05-13 06:00:00,48.3,44.9,30.10,WNW,294,0.0,0.0,88,0.00,,,0.00,VWS V14.01,2013-05-13 13:00:00,
2013-05-13 06:05:00,48.2,45.1,30.10,WNW,294,0.0,0.0,89,0.00,,,0.00,VWS V14.01,2013-05-13 13:05:00,
2013-05-13 06:10:00,48.1,45.0,30.10,WNW,294,0.0,0.0,89,0.00,,,0.00,VWS V14.01,2013-05-13 13:10:00,
2013-05-13 06:15:00,47.9,44.8,30.10,WNW,294,0.0,0.0,89,0.00,,,0.00,VWS V14.01,2013-05-13 13:15:00,
2013-05-13 06:20:00,47.7,44.9,30.11,WNW,294,0.0,0.0,90,0.00,,,0.00,VWS V14.01,2013-05-13 13:20:00,
2013-05-13 06:25:00,47.6,44.8,30.11,WNW,294,0.0,0.0,90,0.00,,,0.00,VWS V14.01,2013-05-13 13:25:00,
2013-05-13 06:30:00,47.6,44.8,30.11,WNW,294,0.0,0.0,90,0.00,,,0.00,VWS V14.01,2013-05-13 13:30:00,
2013-05-13 06:35:00,47.8,45.0,30.11,WNW,294,0.0,0.0,90,0.00,,,0.00,VWS V14.01,2013-05-13 13:35:00,
2013-05-13 06:40:00,47.9,45.1,30.11,WNW,294,0.0,0.0,90,0.00,,,0.00,VWS V14.01,2013-05-13 13:40:00,
2013-05-13 06:45:00,47.9,45.1,30.12,WNW,294,0.0,0.0,90,0.00,,,0.00,VWS V14.01,2013-05-13 13:45:00,
2013-05-13 06:50:00,48.1,45.3,30.11,WNW,294,0.0,0.0,90,0.00,,,0.00,VWS V14.01,2013-05-13 13:50:00,
2013-05-13 06:55:00,48.4,45.6,30.11,WNW,294,0.0,0.0,90,0.00,,,0.00,VWS V14.01,2013-05-13 13:55:00,
2013-05-13 07:00:00,48.7,45.9,30.12,WNW,294,0.0,0.0,90,0.00,,,0.00,VWS V14.01,2013-05-13 14:00:00,
2013-05-13 07:05:00,49.5,46.7,30.11,WNW,294,0.0,0.0,90,0.00,,,0.00,VWS V14.01,2013-05-13 14:05:00,
2013-05-13 07:10:00,51.3,47.3,30.11,NNW,336,0.0,0.0,86,0.00,,,0.00,VWS V14.01,2013-05-13 14:10:00,
2013-05-13 07:15:00,53.2,47.9,30.11,NNW,336,0.0,0.0,82,0.00,,,0.00,VWS V14.01,2013-05-13 14:15:00,
2013-05-13 07:20:00,54.8,48.8,30.11,NNW,336,0.0,0.0,80,0.00,,,0.00,VWS V14.01,2013-05-13 14:20:00,
2013-05-13 07:25:00,56.3,48.8,30.11,NNW,336,0.0,0.0,76,0.00,,,0.00,VWS V14.01,2013-05-13 14:25:00,
2013-05-13 07:30:00,57.9,49.3,30.12,NNW,336,0.0,0.0,73,0.00,,,0.00,VWS V14.01,2013-05-13 14:30:00,
2013-05-13 07:35:00,59.2,49.4,30.12,NNW,336,0.0,0.0,70,0.00,,,0.00,VWS V14.01,2013-05-13 14:35:00,
2013-05-13 07:40:00,60.1,49.9,30.11,NNW,334,0.0,0.0,69,0.00,,,0.00,VWS V14.01,2013-05-13 14:40:00,
2013-05-13 07:45:00,60.7,49.7,30.12,NNW,335,0.0,0.0,67,0.00,,,0.00,VWS V14.01,2013-05-13 14:45:00,
2013-05-13 07:50:00,61.5,49.2,30.12,NNW,337,0.0,0.0,64,0.00,,,0.00,VWS V14.01,2013-05-13 14:50:00,
2013-05-13 07:55:00,61.8,49.5,30.12,NNW,328,0.0,0.0,64,0.00,,,0.00,VWS V14.01,2013-05-13 14:55:00,
2013-05-13 08:00:00,62.9,49.7,30.12,NNW,330,0.0,0.0,62,0.00,,,0.00,VWS V14.01,2013-05-13 15:00:00,
2013-05-13 08:05:00,63.0,49.4,30.12,NW,316,0.0,0.0,61,0.00,,,0.00,VWS V14.01,2013-05-13 15:05:00,
2013-05-13 08:10:00,62.7,49.5,30.12,WSW,255,0.0,0.0,62,0.00,,,0.00,VWS V14.01,2013-05-13 15:10:00,
2013-05-13 08:15:00,62.9,49.7,30.13,West,278,0.0,0.0,62,0.00,,,0.00,VWS V14.01,2013-05-13 15:15:00,
2013-05-13 08:20:00,63.4,50.2,30.12,WSW,250,0.0,0.0,62,0.00,,,0.00,VWS V14.01,2013-05-13 15:20:00,
2013-05-13 08:25:00,64.8,50.6,30.13,NNE,30,0.0,0.0,60,0.00,,,0.00,VWS V14.01,2013-05-13 15:25:00,
2013-05-13 08:30:00,65.4,50.2,30.13,NW,304,1.0,2.0,58,0.00,,,0.00,VWS V14.01,2013-05-13 15:30:00,
2013-05-13 08:35:00,65.6,50.4,30.13,WNW,300,2.0,3.0,58,0.00,,,0.00,VWS V14.01,2013-05-13 15:35:00,
2013-05-13 08:40:00,65.6,50.4,30.14,South,181,1.0,3.0,58,0.00,,,0.00,VWS V14.01,2013-05-13 15:40:00,
2013-05-13 08:45:00,65.8,50.6,30.14,SW,219,1.0,3.0,58,0.00,,,0.00,VWS V14.01,2013-05-13 15:45:00,
2013-05-13 08:50:00,66.1,50.0,30.14,SW,217,2.0,4.0,56,0.00,,,0.00,VWS V14.01,2013-05-13 15:50:00,
2013-05-13 08:55:00,66.3,50.2,30.14,NNW,335,1.0,4.0,56,0.00,,,0.00,VWS V14.01,2013-05-13 15:55:00,
2013-05-13 09:00:00,66.7,50.5,30.14,NW,307,1.0,2.0,56,0.00,,,0.00,VWS V14.01,2013-05-13 16:00:00,
2013-05-13 09:05:00,67.6,51.4,30.13,WSW,245,0.0,3.0,56,0.00,,,0.00,VWS V14.01,2013-05-13 16:05:00,
2013-05-13 09:10:00,68.6,49.8,30.13,NW,316,0.0,3.0,51,0.00,,,0.00,VWS V14.01,2013-05-13 16:10:00,
2013-05-13 09:15:00,69.0,50.7,30.13,NNW,341,0.0,3.0,52,0.00,,,0.00,VWS V14.01,2013-05-13 16:15:00,
2013-05-13 09:20:00,69.8,50.9,30.13,WNW,294,1.0,3.0,51,0.00,,,0.00,VWS V14.01,2013-05-13 16:20:00,
2013-05-13 09:25:00,70.4,52.0,30.13,NW,305,1.0,3.0,52,0.00,,,0.00,VWS V14.01,2013-05-13 16:25:00,
2013-05-13 09:30:00,71.0,52.0,30.13,WSW,237,4.0,4.0,51,0.00,,,0.00,VWS V14.01,2013-05-13 16:30:00,
2013-05-13 09:35:00,71.0,50.9,30.14,SW,235,4.0,5.0,49,0.00,,,0.00,VWS V14.01,2013-05-13 16:35:00,
2013-05-13 09:40:00,70.8,51.8,30.14,WNW,288,1.0,5.0,51,0.00,,,0.00,VWS V14.01,2013-05-13 16:40:00,
2013-05-13 09:45:00,71.0,50.9,30.14,NNW,330,1.0,5.0,49,0.00,,,0.00,VWS V14.01,2013-05-13 16:45:00,
2013-05-13 09:50:00,71.3,50.0,30.14,NW,316,2.0,5.0,47,0.00,,,0.00,VWS V14.01,2013-05-13 16:50:00,
2013-05-13 09:55:00,71.7,49.2,30.14,WNW,301,1.0,5.0,45,0.00,,,0.00,VWS V14.01,2013-05-13 16:55:00,
2013-05-13 10:00:00,71.8,49.9,30.14,West,273,3.0,3.0,46,0.00,,,0.00,VWS V14.01,2013-05-13 17:00:00,
2013-05-13 10:05:00,72.3,49.8,30.14,WSW,243,1.0,5.0,45,0.00,,,0.00,VWS V14.01,2013-05-13 17:05:00,
2013-05-13 10:10:00,73.2,51.2,30.14,WSW,247,1.0,5.0,46,0.00,,,0.00,VWS V14.01,2013-05-13 17:10:00,
2013-05-13 10:15:00,73.5,50.3,30.13,NW,305,3.0,8.0,44,0.00,,,0.00,VWS V14.01,2013-05-13 17:15:00,
2013-05-13 10:20:00,73.5,49.7,30.14,WNW,293,2.0,8.0,43,0.00,,,0.00,VWS V14.01,2013-05-13 17:20:00,
2013-05-13 10:25:00,74.1,49.6,30.13,NW,304,2.0,8.0,42,0.00,,,0.00,VWS V14.01,2013-05-13 17:25:00,
2013-05-13 10:30:00,74.3,50.4,30.14,SW,226,2.0,4.0,43,0.00,,,0.00,VWS V14.01,2013-05-13 17:30:00,
2013-05-13 10:35:00,74.6,50.7,30.14,SSW,195,1.0,4.0,43,0.00,,,0.00,VWS V14.01,2013-05-13 17:35:00,
2013-05-13 10:40:00,74.8,51.5,30.14,ESE,117,4.0,5.0,44,0.00,,,0.00,VWS V14.01,2013-05-13 17:40:00,
2013-05-13 10:45:00,75.5,52.1,30.14,West,266,1.0,5.0,44,0.00,,,0.00,VWS V14.01,2013-05-13 17:45:00,
2013-05-13 10:50:00,76.0,51.3,30.14,SE,135,2.0,6.0,42,0.00,,,0.00,VWS V14.01,2013-05-13 17:50:00,
2013-05-13 10:55:00,76.1,52.6,30.14,West,269,3.0,6.0,44,0.00,,,0.00,VWS V14.01,2013-05-13 17:55:00,
2013-05-13 11:00:00,76.2,51.5,30.14,WSW,257,1.0,4.0,42,0.00,,,0.00,VWS V14.01,2013-05-13 18:00:00,
2013-05-13 11:05:00,76.4,51.0,30.14,ESE,123,3.0,4.0,41,0.00,,,0.00,VWS V14.01,2013-05-13 18:05:00,
2013-05-13 11:10:00,76.6,52.5,30.14,WSW,240,4.0,4.0,43,0.00,,,0.00,VWS V14.01,2013-05-13 18:10:00,
2013-05-13 11:15:00,77.2,52.4,30.14,West,269,1.0,5.0,42,0.00,,,0.00,VWS V14.01,2013-05-13 18:15:00,
2013-05-13 11:20:00,77.6,52.1,30.13,SW,217,1.0,5.0,41,0.00,,,0.00,VWS V14.01,2013-05-13 18:20:00,
2013-05-13 11:25:00,78.1,52.5,30.13,WNW,296,2.0,5.0,41,0.00,,,0.00,VWS V14.01,2013-05-13 18:25:00,
2013-05-13 11:30:00,78.5,52.2,30.13,NW,323,2.0,4.0,40,0.00,,,0.00,VWS V14.01,2013-05-13 18:30:00,
2013-05-13 11:35:00,78.6,51.6,30.13,ENE,72,1.0,4.0,39,0.00,,,0.00,VWS V14.01,2013-05-13 18:35:00,
2013-05-13 11:40:00,79.1,54.7,30.13,SSW,202,2.0,4.0,43,0.00,,,0.00,VWS V14.01,2013-05-13 18:40:00,
2013-05-13 11:45:00,79.6,52.5,30.14,WSW,242,5.0,7.0,39,0.00,,,0.00,VWS V14.01,2013-05-13 18:45:00,
2013-05-13 11:50:00,79.4,52.3,30.13,NW,321,2.0,7.0,39,0.00,,,0.00,VWS V14.01,2013-05-13 18:50:00,
2013-05-13 11:55:00,79.5,53.1,30.13,WSW,238,0.0,7.0,40,0.00,,,0.00,VWS V14.01,2013-05-13 18:55:00,
2013-05-13 12:00:00,79.9,53.5,30.13,WSW,248,4.0,4.0,40,0.00,,,0.00,VWS V14.01,2013-05-13 19:00:00,
2013-05-13 12:05:00,79.8,54.0,30.13,WSW,249,2.0,5.0,41,0.00,,,0.00,VWS V14.01,2013-05-13 19:05:00,
2013-05-13 12:10:00,80.2,54.4,30.13,WSW,245,0.0,5.0,41,0.00,,,0.00,VWS V14.01,2013-05-13 19:10:00,
2013-05-13 12:15:00,80.2,54.4,30.13,West,278,1.0,7.0,41,0.00,,,0.00,VWS V14.01,2013-05-13 19:15:00,
2013-05-13 12:19:00,80.2,54.4,30.13,NW,326,3.0,7.0,41,0.00,,,0.00,VWS V14.01,2013-05-13 19:19:00,
2013-05-13 12:24:00,80.2,54.4,30.12,WNW,290,2.0,7.0,41,0.00,,,0.00,VWS V14.01,2013-05-13 19:24:00,
2013-05-13 12:29:00,80.5,54.7,30.12,WNW,283,1.0,4.0,41,0.00,,,0.00,VWS V14.01,2013-05-13 19:29:00,
2013-05-13 12:34:00,81.0,55.1,30.12,NW,319,1.0,6.0,41,0.00,,,0.00,VWS V14.01,2013-05-13 19:34:00,
2013-05-13 12:39:00,80.5,55.3,30.11,WNW,294,2.0,6.0,42,0.00,,,0.00,VWS V14.01,2013-05-13 19:39:00,
2013-05-13 12:44:00,80.6,54.8,30.11,West,268,1.0,6.0,41,0.00,,,0.00,VWS V14.01,2013-05-13 19:44:00,
2013-05-13 12:49:00,81.0,55.1,30.11,WSW,243,1.0,6.0,41,0.00,,,0.00,VWS V14.01,2013-05-13 19:49:00,
2013-05-13 12:54:00,81.6,55.6,30.11,North,352,1.0,6.0,41,0.00,,,0.00,VWS V14.01,2013-05-13 19:54:00,
2013-05-13 12:59:00,82.1,56.8,30.11,West,266,1.0,3.0,42,0.00,,,0.00,VWS V14.01,2013-05-13 19:59:00,
2013-05-13 13:04:00,82.1,56.1,30.11,West,271,1.0,8.0,41,0.00,,,0.00,VWS V14.01,2013-05-13 20:04:00,
2013-05-13 13:09:00,82.9,56.1,30.11,WSW,245,1.0,8.0,40,0.00,,,0.00,VWS V14.01,2013-05-13 20:09:00,
2013-05-13 13:14:00,82.8,55.3,30.11,NNW,332,3.0,8.0,39,0.00,,,0.00,VWS V14.01,2013-05-13 20:14:00,
2013-05-13 13:19:00,82.7,56.6,30.10,WNW,283,4.0,8.0,41,0.00,,,0.00,VWS V14.01,2013-05-13 20:19:00,
2013-05-13 13:24:00,83.1,55.6,30.10,NNE,15,1.0,8.0,39,0.00,,,0.00,VWS V14.01,2013-05-13 20:24:00,
2013-05-13 13:29:00,83.2,56.4,30.10,SW,231,1.0,4.0,40,0.00,,,0.00,VWS V14.01,2013-05-13 20:29:00,
2013-05-13 13:34:00,83.6,56.8,30.10,SW,214,3.0,4.0,40,0.00,,,0.00,VWS V14.01,2013-05-13 20:34:00,
2013-05-13 13:39:00,84.2,57.3,30.10,NNW,341,4.0,4.0,40,0.00,,,0.00,VWS V14.01,2013-05-13 20:39:00,
2013-05-13 13:44:00,84.0,56.4,30.09,NW,305,1.0,6.0,39,0.00,,,0.00,VWS V14.01,2013-05-13 20:44:00,
2013-05-13 13:49:00,84.3,56.0,30.09,NW,305,1.0,6.0,38,0.00,,,0.00,VWS V14.01,2013-05-13 20:49:00,
2013-05-13 13:54:00,84.6,56.2,30.09,WSW,250,1.0,6.0,38,0.00,,,0.00,VWS V14.01,2013-05-13 20:54:00,
2013-05-13 13:59:00,84.7,56.3,30.09,SW,219,1.0,4.0,38,0.00,,,0.00,VWS V14.01,2013-05-13 20:59:00,
2013-05-13 14:04:00,85.1,57.4,30.09,SW,231,2.0,4.0,39,0.00,,,0.00,VWS V14.01,2013-05-13 21:04:00,
2013-05-13 14:09:00,85.4,56.2,30.08,WSW,255,0.0,4.0,37,0.00,,,0.00,VWS V14.01,2013-05-13 21:09:00,
2013-05-13 14:14:00,85.7,57.9,30.08,WSW,240,3.0,6.0,39,0.00,,,0.00,VWS V14.01,2013-05-13 21:14:00,
2013-05-13 14:19:00,86.4,56.3,30.08,SSE,153,1.0,6.0,36,0.00,,,0.00,VWS V14.01,2013-05-13 21:19:00,
2013-05-13 14:24:00,86.3,55.5,30.08,West,274,2.0,7.0,35,0.00,,,0.00,VWS V14.01,2013-05-13 21:24:00,
2013-05-13 14:29:00,86.5,56.4,30.08,West,260,2.0,4.0,36,0.00,,,0.00,VWS V14.01,2013-05-13 21:29:00,
2013-05-13 14:34:00,86.7,56.6,30.08,WNW,293,2.0,6.0,36,0.00,,,0.00,VWS V14.01,2013-05-13 21:34:00,
2013-05-13 14:39:00,86.5,57.2,30.08,South,169,2.0,6.0,37,0.00,,,0.00,VWS V14.01,2013-05-13 21:39:00,
2013-05-13 14:44:00,86.7,56.6,30.08,West,271,1.0,7.0,36,0.00,,,0.00,VWS V14.01,2013-05-13 21:44:00,
2013-05-13 14:49:00,87.1,56.9,30.07,NW,306,1.0,7.0,36,0.00,,,0.00,VWS V14.01,2013-05-13 21:49:00,
2013-05-13 14:54:00,87.2,57.0,30.07,NW,323,0.0,7.0,36,0.00,,,0.00,VWS V14.01,2013-05-13 21:54:00,
2013-05-13 14:59:00,87.7,57.5,30.07,NW,325,1.0,2.0,36,0.00,,,0.00,VWS V14.01,2013-05-13 21:59:00,
2013-05-13 15:04:00,87.6,57.4,30.07,WNW,284,2.0,5.0,36,0.00,,,0.00,VWS V14.01,2013-05-13 22:04:00,
2013-05-13 15:09:00,87.4,55.6,30.06,WNW,291,1.0,5.0,34,0.00,,,0.00,VWS V14.01,2013-05-13 22:09:00,
2013-05-13 15:14:00,87.4,55.6,30.06,SSE,163,2.0,5.0,34,0.00,,,0.00,VWS V14.01,2013-05-13 22:14:00,
2013-05-13 15:19:00,87.4,54.8,30.06,WNW,298,2.0,5.0,33,0.00,,,0.00,VWS V14.01,2013-05-13 22:19:00,
2013-05-13 15:24:00,87.3,55.5,30.06,NW,318,2.0,7.0,34,0.00,,,0.00,VWS V14.01,2013-05-13 22:24:00,
2013-05-13 15:29:00,86.9,53.5,30.06,NW,315,2.0,2.0,32,0.00,,,0.00,VWS V14.01,2013-05-13 22:29:00,
2013-05-13 15:34:00,86.9,53.5,30.05,West,276,2.0,5.0,32,0.00,,,0.00,VWS V14.01,2013-05-13 22:34:00,
2013-05-13 15:39:00,87.4,54.0,30.05,ESE,115,1.0,5.0,32,0.00,,,0.00,VWS V14.01,2013-05-13 22:39:00,
2013-05-13 15:44:00,87.6,54.1,30.04,WSW,245,4.0,5.0,32,0.00,,,0.00,VWS V14.01,2013-05-13 22:44:00,
2013-05-13 15:49:00,87.7,55.1,30.04,NW,315,2.0,5.0,33,0.00,,,0.00,VWS V14.01,2013-05-13 22:49:00,
2013-05-13 15:54:00,87.8,54.3,30.04,WNW,299,2.0,5.0,32,0.00,,,0.00,VWS V14.01,2013-05-13 22:54:00,
2013-05-13 15:59:00,87.8,54.3,30.04,NNW,345,2.0,3.0,32,0.00,,,0.00,VWS V14.01,2013-05-13 22:59:00,
2013-05-13 16:04:00,88.0,55.3,30.04,WSW,256,0.0,4.0,33,0.00,,,0.00,VWS V14.01,2013-05-13 23:04:00,
2013-05-13 16:09:00,88.6,55.0,30.03,WNW,300,2.0,5.0,32,0.00,,,0.00,VWS V14.01,2013-05-13 23:09:00,
2013-05-13 16:14:00,88.3,54.7,30.03,SE,126,2.0,5.0,32,0.00,,,0.00,VWS V14.01,2013-05-13 23:14:00,
2013-05-13 16:19:00,88.2,56.3,30.03,NNE,32,1.0,5.0,34,0.00,,,0.00,VWS V14.01,2013-05-13 23:19:00,
2013-05-13 16:24:00,88.5,56.6,30.03,NW,312,1.0,5.0,34,0.00,,,0.00,VWS V14.01,2013-05-13 23:24:00,
2013-05-13 16:29:00,88.4,56.5,30.03,WSW,243,2.0,3.0,34,0.00,,,0.00,VWS V14.01,2013-05-13 23:29:00,
2013-05-13 16:34:00,88.0,56.1,30.03,SW,215,3.0,7.0,34,0.00,,,0.00,VWS V14.01,2013-05-13 23:34:00,
2013-05-13 16:39:00,87.6,56.6,30.03,West,281,1.0,7.0,35,0.00,,,0.00,VWS V14.01,2013-05-13 23:39:00,
2013-05-13 16:44:00,87.4,55.6,30.03,NW,305,4.0,7.0,34,0.00,,,0.00,VWS V14.01,2013-05-13 23:44:00,
2013-05-13 16:49:00,86.9,56.0,30.02,West,280,0.0,7.0,35,0.00,,,0.00,VWS V14.01,2013-05-13 23:49:00,
2013-05-13 16:54:00,86.7,55.8,30.02,WNW,301,2.0,7.0,35,0.00,,,0.00,VWS V14.01,2013-05-13 23:54:00,
2013-05-13 16:59:00,86.3,55.5,30.02,West,274,1.0,3.0,35,0.00,,,0.00,VWS V14.01,2013-05-13 23:59:00,
2013-05-13 17:04:00,86.2,55.4,30.02,WSW,252,6.0,6.0,35,0.00,,,0.00,VWS V14.01,2013-05-14 00:04:00,
2013-05-13 17:09:00,86.3,56.2,30.02,West,280,3.0,6.0,36,0.00,,,0.00,VWS V14.01,2013-05-14 00:09:00,
2013-05-13 17:14:00,85.9,55.9,30.02,NW,304,2.0,6.0,36,0.00,,,0.00,VWS V14.01,2013-05-14 00:14:00,
2013-05-13 17:19:00,85.6,55.6,30.02,NW,324,5.0,6.0,36,0.00,,,0.00,VWS V14.01,2013-05-14 00:19:00,
2013-05-13 17:24:00,85.7,56.5,30.02,WSW,242,1.0,6.0,37,0.00,,,0.00,VWS V14.01,2013-05-14 00:24:00,
2013-05-13 17:29:00,85.9,56.6,30.02,NW,318,2.0,4.0,37,0.00,,,0.00,VWS V14.01,2013-05-14 00:29:00,
2013-05-13 17:34:00,85.9,55.9,30.02,NNW,328,4.0,5.0,36,0.00,,,0.00,VWS V14.01,2013-05-14 00:34:00,
2013-05-13 17:39:00,85.6,56.4,30.02,WSW,248,4.0,5.0,37,0.00,,,0.00,VWS V14.01,2013-05-14 00:39:00,
2013-05-13 17:44:00,85.7,56.5,30.02,WSW,252,1.0,5.0,37,0.00,,,0.00,VWS V14.01,2013-05-14 00:44:00,
2013-05-13 17:49:00,85.7,56.5,30.01,NW,315,1.0,5.0,37,0.00,,,0.00,VWS V14.01,2013-05-14 00:49:00,
2013-05-13 17:54:00,85.9,56.6,30.01,NW,316,1.0,5.0,37,0.00,,,0.00,VWS V14.01,2013-05-14 00:54:00,
2013-05-13 17:59:00,85.8,56.5,30.01,SW,232,2.0,2.0,37,0.00,,,0.00,VWS V14.01,2013-05-14 00:59:00,
2013-05-13 18:04:00,85.7,54.9,30.01,NW,323,0.0,4.0,35,0.00,,,0.00,VWS V14.01,2013-05-14 01:04:00,
2013-05-13 18:09:00,85.4,56.2,30.01,NW,324,4.0,4.0,37,0.00,,,0.00,VWS V14.01,2013-05-14 01:09:00,
2013-05-13 18:14:00,84.9,55.8,30.01,WSW,248,1.0,5.0,37,0.00,,,0.00,VWS V14.01,2013-05-14 01:14:00,
2013-05-13 18:19:00,84.7,55.6,30.00,West,274,1.0,5.0,37,0.00,,,0.00,VWS V14.01,2013-05-14 01:19:00,
2013-05-13 18:24:00,84.6,55.5,30.00,WNW,291,1.0,5.0,37,0.00,,,0.00,VWS V14.01,2013-05-14 01:24:00,
2013-05-13 18:29:00,84.2,56.6,30.00,WSW,246,2.0,6.0,39,0.00,,,0.00,VWS V14.01,2013-05-14 01:29:00,
2013-05-13 18:34:00,83.3,57.2,30.00,SSW,194,0.0,6.0,41,0.00,,,0.00,VWS V14.01,2013-05-14 01:34:00,
2013-05-13 18:39:00,82.8,56.7,30.00,WSW,243,4.0,6.0,41,0.00,,,0.00,VWS V14.01,2013-05-14 01:39:00,
2013-05-13 18:44:00,82.3,55.6,30.00,SW,233,3.0,8.0,40,0.00,,,0.00,VWS V14.01,2013-05-14 01:44:00,
2013-05-13 18:49:00,81.8,56.5,30.00,NW,317,3.0,8.0,42,0.00,,,0.00,VWS V14.01,2013-05-14 01:49:00,
2013-05-13 18:54:00,81.1,55.9,30.00,West,262,1.0,8.0,42,0.00,,,0.00,VWS V14.01,2013-05-14 01:54:00,
2013-05-13 18:59:00,80.7,55.5,30.00,NW,320,1.0,2.0,42,0.00,,,0.00,VWS V14.01,2013-05-14 01:59:00,
2013-05-13 19:04:00,79.9,54.8,29.99,NW,304,3.0,6.0,42,0.00,,,0.00,VWS V14.01,2013-05-14 02:04:00,
2013-05-13 19:09:00,79.4,55.0,29.99,SE,142,1.0,6.0,43,0.00,,,0.00,VWS V14.01,2013-05-14 02:09:00,
2013-05-13 19:14:00,78.9,55.2,29.99,NNE,29,1.0,8.0,44,0.00,,,0.00,VWS V14.01,2013-05-14 02:14:00,
2013-05-13 19:19:00,78.4,54.7,29.99,North,360,0.0,8.0,44,0.00,,,0.00,VWS V14.01,2013-05-14 02:19:00,
2013-05-13 19:24:00,78.1,54.4,29.99,NW,304,3.0,8.0,44,0.00,,,0.00,VWS V14.01,2013-05-14 02:24:00,
2013-05-13 19:29:00,77.9,54.3,29.99,West,259,1.0,6.0,44,0.00,,,0.00,VWS V14.01,2013-05-14 02:29:00,
2013-05-13 19:34:00,77.4,54.4,29.99,NE,37,0.0,6.0,45,0.00,,,0.00,VWS V14.01,2013-05-14 02:34:00,
2013-05-13 19:39:00,76.6,53.7,30.00,SW,217,0.0,6.0,45,0.00,,,0.00,VWS V14.01,2013-05-14 02:39:00,
2013-05-13 19:44:00,76.1,53.8,29.99,SSW,198,0.0,6.0,46,0.00,,,0.00,VWS V14.01,2013-05-14 02:44:00,
2013-05-13 19:49:00,75.5,53.9,30.00,West,260,4.0,6.0,47,0.00,,,0.00,VWS V14.01,2013-05-14 02:49:00,
2013-05-13 19:54:00,74.9,53.3,30.00,NNE,25,0.0,6.0,47,0.00,,,0.00,VWS V14.01,2013-05-14 02:54:00,
2013-05-13 19:59:00,74.4,53.5,30.00,ENE,78,0.0,3.0,48,0.00,,,0.00,VWS V14.01,2013-05-14 02:59:00,
2013-05-13 20:04:00,73.9,54.1,30.00,South,172,0.0,3.0,50,0.00,,,0.00,VWS V14.01,2013-05-14 03:04:00,
2013-05-13 20:09:00,73.3,53.6,30.00,SSW,204,0.0,5.0,50,0.00,,,0.00,VWS V14.01,2013-05-14 03:09:00,
2013-05-13 20:14:00,72.7,53.5,30.00,WNW,293,0.0,5.0,51,0.00,,,0.00,VWS V14.01,2013-05-14 03:14:00,
2013-05-13 20:19:00,72.3,53.2,30.00,NW,322,0.0,5.0,51,0.00,,,0.00,VWS V14.01,2013-05-14 03:19:00,
2013-05-13 20:24:00,71.8,53.2,30.00,West,270,0.0,5.0,52,0.00,,,0.00,VWS V14.01,2013-05-14 03:24:00,
2013-05-13 20:29:00,71.5,53.5,30.00,WSW,252,0.0,0.0,53,0.00,,,0.00,VWS V14.01,2013-05-14 03:29:00,
2013-05-13 20:34:00,71.1,53.1,30.00,SSW,211,0.0,1.0,53,0.00,,,0.00,VWS V14.01,2013-05-14 03:34:00,
2013-05-13 20:39:00,70.9,52.9,30.00,SW,219,0.0,5.0,53,0.00,,,0.00,VWS V14.01,2013-05-14 03:39:00,
2013-05-13 20:44:00,70.6,52.7,30.00,SW,226,0.0,5.0,53,0.00,,,0.00,VWS V14.01,2013-05-14 03:44:00,
2013-05-13 20:49:00,70.3,52.4,30.00,SW,226,0.0,5.0,53,0.00,,,0.00,VWS V14.01,2013-05-14 03:49:00,
2013-05-13 20:54:00,70.0,52.6,30.00,WSW,242,0.0,5.0,54,0.00,,,0.00,VWS V14.01,2013-05-14 03:54:00,
2013-05-13 20:59:00,69.6,52.7,30.00,NW,309,0.0,0.0,55,0.00,,,0.00,VWS V14.01,2013-05-14 03:59:00,
2013-05-13 21:01:00,69.4,52.0,30.00,West,278,0.0,2.0,54,0.00,,,0.00,VWS V14.01,2013-05-14 04:01:00,
2013-05-13 21:06:00,69.0,52.2,30.01,NW,311,0.0,2.0,55,0.00,,,0.00,VWS V14.01,2013-05-14 04:06:00,
2013-05-13 21:11:00,68.7,52.4,30.01,WSW,255,1.0,2.0,56,0.00,,,0.00,VWS V14.01,2013-05-14 04:11:00,
2013-05-13 21:16:00,68.3,52.5,30.01,WSW,249,0.0,2.0,57,0.00,,,0.00,VWS V14.01,2013-05-14 04:16:00,
2013-05-13 21:21:00,68.1,52.8,30.01,WSW,250,0.0,2.0,58,0.00,,,0.00,VWS V14.01,2013-05-14 04:21:00,
2013-05-13 21:26:00,67.7,52.9,30.02,WSW,250,0.0,2.0,59,0.00,,,0.00,VWS V14.01,2013-05-14 04:26:00,
2013-05-13 21:31:00,67.5,53.1,30.02,WSW,249,1.0,1.0,60,0.00,,,0.00,VWS V14.01,2013-05-14 04:31:00,
2013-05-13 21:36:00,67.3,53.0,30.02,SW,218,0.0,1.0,60,0.00,,,0.00,VWS V14.01,2013-05-14 04:36:00,
2013-05-13 21:41:00,67.1,52.8,30.02,SW,227,0.0,1.0,60,0.00,,,0.00,VWS V14.01,2013-05-14 04:41:00,
2013-05-13 21:46:00,66.9,53.0,30.02,West,269,0.0,1.0,61,0.00,,,0.00,VWS V14.01,2013-05-14 04:46:00,
2013-05-13 21:51:00,66.7,52.8,30.02,West,267,0.0,1.0,61,0.00,,,0.00,VWS V14.01,2013-05-14 04:51:00,
2013-05-13 21:56:00,66.5,52.7,30.01,NW,307,0.0,1.0,61,0.00,,,0.00,VWS V14.01,2013-05-14 04:56:00,
2013-05-13 22:01:00,66.2,52.4,30.02,WNW,290,0.0,0.0,61,0.00,,,0.00,VWS V14.01,2013-05-14 05:01:00,
2013-05-13 22:06:00,66.1,52.3,30.01,WNW,290,0.0,1.0,61,0.00,,,0.00,VWS V14.01,2013-05-14 05:06:00,
2013-05-13 22:11:00,65.9,52.1,30.01,WNW,288,0.0,1.0,61,0.00,,,0.00,VWS V14.01,2013-05-14 05:11:00,
2013-05-13 22:16:00,65.9,52.1,30.02,SW,235,0.0,1.0,61,0.00,,,0.00,VWS V14.01,2013-05-14 05:16:00,
2013-05-13 22:21:00,66.0,51.7,30.01,NW,307,0.0,1.0,60,0.00,,,0.00,VWS V14.01,2013-05-14 05:21:00,
2013-05-13 22:26:00,66.2,51.9,30.01,WNW,285,0.0,3.0,60,0.00,,,0.00,VWS V14.01,2013-05-14 05:26:00,
2013-05-13 22:31:00,66.3,51.6,30.01,NE,37,0.0,1.0,59,0.00,,,0.00,VWS V14.01,2013-05-14 05:31:00,
2013-05-13 22:36:00,66.5,51.3,30.01,North,360,0.0,1.0,58,0.00,,,0.00,VWS V14.01,2013-05-14 05:36:00,
2013-05-13 22:41:00,66.6,51.4,30.01,NW,311,0.0,1.0,58,0.00,,,0.00,VWS V14.01,2013-05-14 05:41:00,
2013-05-13 22:46:00,66.6,51.4,30.01,WSW,245,0.0,1.0,58,0.00,,,0.00,VWS V14.01,2013-05-14 05:46:00,
2013-05-13 22:50:00,66.4,51.2,30.01,WSW,238,0.0,1.0,58,0.00,,,0.00,VWS V14.01,2013-05-14 05:50:00,
2013-05-13 22:55:00,66.2,51.0,30.01,WSW,237,0.0,1.0,58,0.00,,,0.00,VWS V14.01,2013-05-14 05:55:00,
2013-05-13 23:00:00,65.8,51.1,30.01,NW,314,0.0,2.0,59,0.00,,,0.00,VWS V14.01,2013-05-14 06:00:00,
2013-05-13 23:05:00,65.7,50.5,30.01,West,266,1.0,2.0,58,0.00,,,0.00,VWS V14.01,2013-05-14 06:05:00,
2013-05-13 23:10:00,65.8,50.6,30.01,NW,315,0.0,2.0,58,0.00,,,0.00,VWS V14.01,2013-05-14 06:10:00,
2013-05-13 23:15:00,65.8,50.6,30.01,WNW,293,0.0,2.0,58,0.00,,,0.00,VWS V14.01,2013-05-14 06:15:00,
2013-05-13 23:20:00,65.8,50.6,30.01,SW,226,0.0,2.0,58,0.00,,,0.00,VWS V14.01,2013-05-14 06:20:00,
2013-05-13 23:25:00,65.6,50.4,30.01,ESE,113,0.0,2.0,58,0.00,,,0.00,VWS V14.01,2013-05-14 06:25:00,
2013-05-13 23:30:00,65.5,50.3,30.01,WSW,250,0.0,1.0,58,0.00,,,0.00,VWS V14.01,2013-05-14 06:30:00,
2013-05-13 23:35:00,65.3,50.2,30.01,WSW,243,1.0,3.0,58,0.00,,,0.00,VWS V14.01,2013-05-14 06:35:00,
2013-05-13 23:40:00,65.2,50.1,30.00,WNW,302,0.0,3.0,58,0.00,,,0.00,VWS V14.01,2013-05-14 06:40:00,
2013-05-13 23:45:00,64.9,50.2,30.00,WNW,297,0.0,3.0,59,0.00,,,0.00,VWS V14.01,2013-05-14 06:45:00,
2013-05-13 23:50:00,64.6,50.0,30.00,WNW,298,0.0,3.0,59,0.00,,,0.00,VWS V14.01,2013-05-14 06:50:00,
2013-05-13 23:55:00,64.1,50.0,30.00,WNW,299,0.0,3.0,60,0.00,,,0.00,VWS V14.01,2013-05-14 06:55:00,